Location: Rio Negrinho
(26.2394°S, 49.4999°W)
Time: 00:54:18
(UTC+00:00)

GOES 2 Rocket - Pass Details

Date: 07 June 2020
Orbit: 569 x 1674 km, 28.4° (Epoch: 13 July)

Event Time Altitude Azimuth Distance (km) Brightness Sun altitude
Exits shadow 08:12:08 76° 337° (NNW) 616 2.9 -23.7°
Maximum altitude 08:12:10 76° 344° (NNW) 616 2.9 -23.7°
Drops below altitude 10° 08:16:52 10° 70° (ENE) 2,083 6.9 -22.7°
Sets 08:19:28 0° 72° (ENE) 3,122 8.2 -22.1°
